Regional Weather Roundup
Issued by NWS

Home | Current Version | Previous Version | Text Only | Print | Product List | Glossary Off
Versions: 1 2 3 4 5 6 7 8 9 10 11 12 13 14 15 16 17 18 19 20 21 22 23 24 25 26 27 28 29 30 31 32 33 34 35 36 37 38 39 40 41 42

000
ASUS43 KMKX 230200
RWRWI

WISCONSIN REGIONAL WEATHER ROUNDUP
NATIONAL WEATHER SERVICE MILWAUKEE/SULLIVAN WI
900 PM CDT MON AUG 22 2016

NOTE: "FAIR" INDICATES FEW OR NO CLOUDS BELOW 12,000 FEET WITH NO
SIGNIFICANT WEATHER AND/OR OBSTRUCTIONS TO VISIBILITY.

WIZ001-002-006>008-014>016-023>028-230300-
NORTHWEST WISCONSIN

CITY           SKY/WX    TMP DP  RH WIND       PRES   REMARKS
SUPERIOR ARPT  CLEAR     73  63  72 SW7       29.84R
ASHLAND        CLEAR     71  61  70 S5        29.89R
HAYWARD        CLEAR     71  60  68 S12       29.92R
SIREN          CLEAR     74  58  57 S12       29.89R
CUMBERLAND     PTCLDY    68  57  68 S10       29.93R
RICE LAKE      MOCLDY    71  60  68 S10       29.95R
CHETEK         NOT AVBL
LADYSMITH      CLEAR     70  61  73 S10       29.97S
EAU CLAIRE     NOT AVBL
MENOMONIE      CLEAR     72  60  66 S8        29.96R
NEW RICHMOND   CLEAR     73  58  60 S10G17    29.93R
OSCEOLA        CLEAR     74  59  59 S9G16     29.93R
$$

WIZ003>005-009-010-017-018-230300-
NORTH CENTRAL WISCONSIN

CITY           SKY/WX    TMP DP  RH WIND       PRES   REMARKS
MANITOWISH WTR NOT AVBL
ARBOR VITAE    CLOUDY    69  62  78 S9G16     29.98R
WOODRUFF       CLOUDY    69  62  78 S9G16     29.98R
RHINELANDER    CLOUDY    68  60  75 SW12G22   30.01R
EAGLE RIVER    LGT RAIN  65  58  75 S6        29.99R
LAND O LAKES   CLOUDY    64  61  88 S6        29.99R
PHILLIPS       PTCLDY    67  61  80 S12       29.97R
TOMAHAWK       CLOUDY    66  59  77 S3        30.01R
MEDFORD        CLEAR     66  62  85 S8        30.01R
MERRILL        CLEAR     69  61  76 S8        30.02R
$$

WIZ029-030-035-036-043>047-230300-
CENTRAL WISCONSIN

CITY           SKY/WX    TMP DP  RH WIND       PRES   REMARKS
WAUSAU         CLEAR     70  59  68 S10       30.01R
MOSINEE        CLEAR     66  61  82 S12       30.04S
MARSHFIELD     CLEAR     69  59  70 S12       30.03R
STEVENS POINT  PTCLDY    68  58  70 S12       30.05R
WAUPACA        CLEAR     69  59  69 S6        30.06R
WAUTOMA        CLEAR     68  60  75 S6        30.07R
WISC RAPIDS    CLEAR     70  61  73 S8        30.05S
CAMP DOUGLAS   NOT AVBL
$$

WIZ011>013-019>022-031-037>040-048>050-230300-
NORTHEAST WISCONSIN

CITY           SKY/WX    TMP DP  RH WIND       PRES   REMARKS
ANTIGO         CLEAR     65  58  80 CALM      30.04R
SHAWANO        CLEAR     71  58  63 S5        30.04R
OCONTO         NOT AVBL
STURGEON BAY   CLOUDY    67  58  72 S13       30.07R
GREEN BAY      CLEAR     68  59  73 S8        30.05S
MANITOWOC      NOT AVBL
APPLETON       MOCLDY    70  54  56 S10       30.05S
CLINTONVILLE   CLEAR     68  55  64 S8        30.04R
OSHKOSH        CLEAR     66  58  75 S9        30.08R
$$

WIZ032>034-041-042-053>061-230300-
SOUTHWEST WISCONSIN

CITY           SKY/WX    TMP DP  RH WIND       PRES   REMARKS
LA CROSSE      CLEAR     74  68  81 S7        30.01R
SPARTA         CLEAR     71  62  71 S7        30.04R
VIROQUA        CLEAR     69  61  76 S8        30.06S
BOSCOBEL       CLEAR     72  61  68 S6        30.07R
PRAIRIE DU CHI CLEAR     71  60  67 SE5       30.05S
PLATTEVILLE    CLEAR     67  63  84 S8        30.11R
$$

WIZ056-057-062-063-064-067-068-230300-
SOUTH CENTRAL WISCONSIN

CITY           SKY/WX    TMP DP  RH WIND       PRES   REMARKS
REEDSBURG      NOT AVBL
BARABOO/DELLS  CLEAR     67  58  71 S7        30.08S
LONE ROCK      NOT AVBL
MINERAL POINT  CLEAR     68  61  77 SE6       30.10S
MADISON        CLEAR     71  58  63 S9        30.10R
MIDDLETON      CLEAR     70  58  66 S6        30.11R
WATERTOWN      CLEAR     66  58  76 S6        30.11R
MONROE         CLEAR     66  57  72 S7        30.12R
JANESVILLE     CLEAR     70  55  60 S9        30.13R
$$

WIZ051-052-058>065-066-070>072-230300-
SOUTHEAST WISCONSIN

CITY           SKY/WX    TMP DP  RH WIND       PRES   REMARKS
MILWAUKEE      CLEAR     69  56  62 S5        30.13R
WAUKESHA       CLEAR     66  54  63 S3        30.14R
MILWAUKEE/TIMM CLEAR     70  52  52 S6        30.12S
RACINE         CLEAR     68  58  70 SW5       30.15R
BURLINGTON     CLEAR     60  55  84 S3        30.14S
KENOSHA        CLEAR     67  55  65 SW6       30.14R
FOND DU LAC    CLEAR     65  57  75 S8        30.09S
SHEBOYGAN      CLEAR     63  57  81 S8        30.10S
WEST BEND      CLEAR     64  55  72 CALM      30.11R
JUNEAU         CLEAR     67  56  68 S9        30.11S
$$

LSZ147-162-230300-
LAKE SUPERIOR

STATION/POSITION TIME  TEMP    WIND        PRES    WAVE
                       AIR SEA DIR/SP/G            HT/PER
                 (UTC) (F)     (DEG/KT/KT) (MB)    (FT/S)
W MID LAKE BUOY  0050   71 67  180/ 14/ 17 1010.5R   1/ 3
DEVILS ISLAND    0100   76     180/  9/ 12 1010.5R
PORT WING        0140   75     190/  7/ 10 1011.2R
SAXON HARBOR     0100   75     190/  4/  9 1011.5
$$

LMZ867-665-643>646-230300-
LAKE MICHIGAN

STATION/POSITION TIME  TEMP    WIND        PRES    WAVE
                       AIR SEA DIR/SP/G            HT/PER
                 (UTC) (F)     (DEG/KT/KT) (MB)    (FT/S)
CHAMBERS ISLAND  0100   70     150/  6/ 14 1016.9R
S GREEN BAY BUOY 0100   72 74  180/ 17/ 21 1016.5F
N MID LAKE BUOY  0050   71 71  200/ 21/ 25 1016.8F   5/ 6
NORTHPORT PIER   0100   70     170/  8/ 13 1017.3S
SISTER BAY       0007   71     190/ 16/ 20   N/A
KEWAUNEE LAKESHO 0100   69                 1017.7F
SHEBOYGAN LAKESH 0100   69     190/ 19/ 22 1019.2F
PORT WASHINGTON  0140   65     210/  3/  8 1020.3R
ATWATER BUOY     0100   68 62  170/ 12/ 14   N/A
MILWAUKEE LAKESH 0110   71     180/ 10/ 10   N/A
S MID LAKE BUOY  0050   74 75  170/ 16/ 17 1019.7F   2/ 3
KENOSHA   LAKESH 0100   73     210/  4/  6 1020.0R
$$

TC  - TEMPERATURE IN CELSIUS
VSB - VISIBILITY IN STATUTE MILES
WCI - WIND CHILL INDEX
HX  - HEAT INDEX





USA.gov is the U.S. government's official web portal to all federal, state and local government web resources and services.